Location: Brad Lee
(38.8304°N, 77.0944°W)
Time: 05:52:29
(UTC+00:00)

Daily predictions for brighter satellites

Satellite Brightness Start Highest point End
(mag) Time Altitude Azimuth Time Altitude Azimuth Time Altitude Azimuth
Cosmos 1110 Rocket 4.5 00:53:10 10° SSE 00:57:55 38° ESE 01:02:41 10° NE
STARLINK-1117 3.9 00:54:42 10° NW 00:58:49 67° SW 01:02:55 10° SE
Cosmos 1954 Rocket 4.5 00:53:37 10° NNW 00:58:51 66° WSW 01:04:06 10° S
Cosmos 371 Rocket 3.8 00:54:45 10° SSW 00:59:34 67° WNW 01:04:26 10° NNE
CZ-2C R/B 4.0 00:54:57 10° S 01:00:26 58° W 01:06:08 10° NNW
GPS 2-04 Rocket1 3.2 00:59:14 10° W 01:02:23 35° SSW 01:05:36 10° SE
Meteor 1-13 Rocket 4.3 00:57:03 10° S 01:02:35 61° E 01:08:16 10° NNE
Cosmos 1850 Rocket 4.4 00:57:38 10° N 01:02:52 52° ENE 01:08:03 10° SE
STARLINK-1078 4.0 00:59:42 10° NW 01:03:47 60° SW 01:07:51 10° SE
SL-4 R/B 2.4 00:59:41 10° SW 01:04:10 61° SE 01:08:55 10° ENE
MOS 1 Rocket 3.1 01:02:05 10° NNE 01:06:24 88° E 01:10:41 10° SSW
STARLINK-1108 4.1 01:04:42 10° WNW 01:08:44 54° SW 01:12:46 10° SSE
Cosmos 1331 Rocket 4.3 01:05:38 10° S 01:10:30 45° ESE 01:15:26 10° NNE
Okean 2 Rocket 3.0 01:08:29 10° N 01:12:54 76° E 01:17:16 10° SSE
STARLINK-1071 4.3 01:09:43 10° WNW 01:13:43 48° SW 01:17:41 10° SSE
BREEZE-M DEB (TANK) 4.3 01:11:57 10° W 01:13:46 20° SW 01:15:48 10° SSE
ARGOS 3.9 01:09:10 10° S 01:14:24 55° W 01:19:43 10° NNW
Sich 1 Rocket 4.2 01:09:52 10° NNW 01:14:24 62° W 01:18:53 10° S
CZ-2C R/B 2.7 01:10:52 10° NNE 01:16:32 81° ESE 01:22:06 10° S
Cosmos 1437 Rocket 2.7 01:12:52 10° S 01:16:37 64° E 01:20:24 10° NNE
ATLAS CENTAUR R/B 3.5 01:16:17 10° ESE 01:17:04 10° ESE 01:17:55 10° E
STARLINK-1110 4.4 01:13:13 10° WNW 01:17:11 45° SW 01:21:07 10° SSE
ASTEX 1 4.4 01:14:04 10° SSW 01:18:47 48° W 01:23:35 10° NNW
Cosmos 304 Rocket 3.8 01:15:45 10° SSW 01:20:32 89° NNW 01:25:21 10° NNE
STARLINK-60 3.4 01:17:31 10° WSW 01:20:38 65° NW 01:23:48 10° NE
STARLINK-1112 4.5 01:17:01 10° NW 01:20:59 42° NE 01:24:48 11° ESE
ASTRO E2 4.1 01:18:08 10° WSW 01:21:20 24° S 01:24:03 12° SE
Resurs 01 Rocket 2.1 01:17:19 10° SE 01:21:34 46° ENE 01:25:49 10° N
SPOT 3 Rocket 3.5 01:17:06 10° SSE 01:22:14 79° ENE 01:27:25 10° N
Cosmos 1943 Rocket 2.6 01:17:26 10° S 01:22:33 40° ESE 01:27:43 10° NE
Cosmos 1300 Rocket 3.6 01:18:37 10° N 01:23:04 86° E 01:27:29 10° S
Intercosmos 24 4.0 01:19:26 10° N 01:23:05 63° E 01:27:37 10° SSE
CENTAUR R/B 4.5 01:17:12 10° NNW 01:23:53 28° NE 01:31:04 10° E
STARLINK-1128 4.3 01:21:57 10° NW 01:25:57 46° NE 01:29:34 12° ESE
Abrixas rocket 2.0 01:23:29 10° NW 01:26:26 74° NNE 01:28:41 16° ESE
Cosmos 2151 Rocket 3.6 01:24:10 10° N 01:28:43 78° E 01:33:13 10° S
H-2A R/B 3.8 01:24:45 10° SSW 01:29:11 30° W 01:33:45 10° NW
deb Kosmos-1763 4.2 01:25:56 10° N 01:29:27 53° ENE 01:32:15 15° SE
STARLINK-1113 4.2 01:26:56 10° NW 01:30:59 50° NE 01:34:22 14° ESE
NOSS 2-2 (D) 3.8 01:27:35 10° SW 01:31:05 58° NW 01:34:49 10° NNE
Resurs 1-3 3.7 01:30:57 10° S 01:35:20 82° WSW 01:39:45 10° NNW
STARLINK-1119 4.0 01:31:52 10° NW 01:35:57 55° NE 01:39:08 16° ESE
Cosmos 1833 Rocket 4.2 01:31:17 10° NW 01:36:15 33° WSW 01:41:12 10° SSW
Nadezhda 4 Rocket 4.2 01:31:16 10° SSE 01:37:11 52° E 01:43:04 10° NNE
BREEZE-M DEB 2.0 01:38:14 10° WSW 01:40:20 76° NW 01:43:36 10° NE
STARLINK-1444 3.4 01:38:48 10° WSW 01:40:44 38° NW 01:42:41 10° NE
STARLINK-1114 3.9 01:36:51 10° NW 01:40:57 60° NE 01:43:56 18° ESE
Aureole 2 4.1 01:38:12 10° NNW 01:41:08 60° ENE 01:42:50 22° SE
STARLINK-1452 3.4 01:39:26 10° WSW 01:41:22 37° NW 01:43:18 10° NE
Cosmos 1674 Rocket 3.6 01:37:50 10° S 01:42:12 86° W 01:46:39 10° N
Cosmos 1378 Rocket 3.5 01:38:00 10° S 01:42:21 71° E 01:46:43 10° NNE
STARLINK-1450 3.5 01:40:45 10° WSW 01:42:36 34° NW 01:44:27 10° NNE
STARLINK-1436 (VISORSAT) 3.5 01:40:47 10° WSW 01:42:39 35° NW 01:44:32 10° NNE
STARLINK-1392 3.5 01:40:52 10° WSW 01:42:43 34° NW 01:44:34 10° NNE
STARLINK-1414 3.5 01:40:51 10° WSW 01:42:44 35° NW 01:44:36 10° NNE
STARLINK-1398 3.5 01:40:50 10° WSW 01:42:44 35° NW 01:44:37 10° NNE
STARLINK-1399 3.6 01:40:53 10° WSW 01:42:44 34° NW 01:44:35 10° NNE
STARLINK-1415 3.6 01:40:53 10° WSW 01:42:45 34° NW 01:44:35 10° NNE
STARLINK-1416 3.5 01:40:52 10° WSW 01:42:45 35° NW 01:44:37 10° NNE
STARLINK-1394 3.6 01:40:54 10° WSW 01:42:45 34° NW 01:44:36 10° NNE
STARLINK-1396 3.6 01:40:55 10° WSW 01:42:45 34° NW 01:44:37 10° NNE
STARLINK-1395 3.6 01:40:54 10° WSW 01:42:45 34° NW 01:44:36 10° NNE
STARLINK-1397 3.6 01:40:55 10° WSW 01:42:45 34° NW 01:44:37 10° NNE
STARLINK-1393 3.6 01:40:54 10° WSW 01:42:45 34° NW 01:44:36 10° NNE
STARLINK-1401 3.6 01:40:55 10° WSW 01:42:46 34° NW 01:44:37 10° NNE
STARLINK-1419 3.6 01:40:54 10° WSW 01:42:46 35° NW 01:44:40 10° NNE
STARLINK-1408 3.5 01:40:53 10° WSW 01:42:46 35° NW 01:44:39 10° NNE
STARLINK-1404 3.6 01:40:55 10° WSW 01:42:46 34° NW 01:44:38 10° NNE
STARLINK-1453 3.6 01:40:56 10° WSW 01:42:47 34° NW 01:44:39 10° NNE
STARLINK-1402 3.6 01:40:58 10° WSW 01:42:49 34° NW 01:44:40 10° NNE
STARLINK-1417 3.6 01:40:58 10° WSW 01:42:49 34° NW 01:44:40 10° NNE
STARLINK-1420 3.6 01:40:56 10° WSW 01:42:49 35° NW 01:44:43 10° NNE
STARLINK-1413 3.6 01:40:58 10° WSW 01:42:49 34° NW 01:44:41 10° NNE
STARLINK-1406 3.6 01:40:59 10° WSW 01:42:50 34° NW 01:44:40 10° NNE
STARLINK-1422 3.6 01:40:57 10° WSW 01:42:50 35° NW 01:44:43 10° NNE
STARLINK-1460 3.6 01:40:58 10° WSW 01:42:51 35° NW 01:44:44 10° NNE
STARLINK-1445 3.6 01:41:01 10° WSW 01:42:52 34° NW 01:44:43 10° NNE
STARLINK-1440 3.6 01:41:00 10° WSW 01:42:52 34° NW 01:44:42 10° NNE
STARLINK-1458 3.6 01:40:59 10° WSW 01:42:52 35° NW 01:44:44 10° NNE
STARLINK-1443 3.6 01:41:02 10° WSW 01:42:53 34° NW 01:44:44 10° NNE
STARLINK-1454 3.6 01:41:02 10° WSW 01:42:53 34° NW 01:44:44 10° NNE
STARLINK-1457 3.6 01:41:03 10° WSW 01:42:54 34° NW 01:44:45 10° NNE
STARLINK-1456 3.6 01:41:04 10° WSW 01:42:54 34° NW 01:44:45 10° NNE
STARLINK-1451 3.6 01:41:04 10° WSW 01:42:55 34° NW 01:44:45 10° NNE
STARLINK-1437 3.6 01:41:02 10° WSW 01:42:55 35° NW 01:44:47 10° NNE
STARLINK-1446 3.6 01:41:02 10° WSW 01:42:55 35° NW 01:44:48 10° NNE
STARLINK-1442 3.6 01:41:05 10° WSW 01:42:56 34° NW 01:44:47 10° NNE
STARLINK-1423 3.6 01:41:05 10° WSW 01:42:57 35° NW 01:44:51 10° NNE
STARLINK-1447 3.6 01:41:05 10° WSW 01:42:57 35° NW 01:44:51 10° NNE
STARLINK-1405 3.6 01:41:07 10° WSW 01:42:58 34° NW 01:44:49 10° NNE
STARLINK-1421 3.6 01:41:07 10° WSW 01:42:58 34° NW 01:44:49 10° NNE
STARLINK-1455 3.6 01:41:05 10° WSW 01:42:58 35° NW 01:44:52 10° NNE
STARLINK-1400 3.6 01:41:08 10° WSW 01:42:59 34° NW 01:44:50 10° NNE
STARLINK-1410 3.6 01:41:08 10° WSW 01:42:59 34° NW 01:44:50 10° NNE
STARLINK-1441 3.6 01:41:06 10° WSW 01:42:59 35° NW 01:44:52 10° NNE
STARLINK-1407 3.6 01:41:09 10° WSW 01:42:59 34° NW 01:44:50 10° NNE
STARLINK-1439 3.6 01:41:09 10° WSW 01:43:00 34° NW 01:44:51 10° NNE
STARLINK-1409 3.6 01:41:10 10° WSW 01:43:00 34° NW 01:44:51 10° NNE
STARLINK-1448 3.6 01:41:07 10° WSW 01:43:01 35° NW 01:44:54 10° NNE
STARLINK-1449 3.6 01:41:07 10° WSW 01:43:01 35° NW 01:44:54 10° NNE
STARLINK-1351 3.6 01:41:11 10° WSW 01:43:01 34° NW 01:44:52 10° NNE
STARLINK-1370 3.6 01:41:11 10° WSW 01:43:01 34° NW 01:44:52 10° NNE
STARLINK-1418 3.6 01:41:11 10° WSW 01:43:02 34° NW 01:44:53 10° NNE
STARLINK-1434 3.6 01:41:11 10° WSW 01:43:02 34° NW 01:44:53 10° NNE
STARLINK-1403 3.6 01:41:12 10° WSW 01:43:03 34° NW 01:44:54 10° NNE
STARLINK-1433 3.6 01:41:13 10° WSW 01:43:04 34° NW 01:44:55 10° NNE
STARLINK-1411 3.6 01:41:14 10° WSW 01:43:05 34° NW 01:44:56 10° NNE
STARLINK-1438 3.6 01:41:15 10° WSW 01:43:05 34° NW 01:44:56 10° NNE
STARLINK-1412 3.6 01:41:16 10° WSW 01:43:08 34° NW 01:45:02 10° NNE
STARLINK-1130 (DARKSAT) 3.8 01:41:48 10° NW 01:45:56 66° NE 01:48:42 20° ESE
Cosmos 2279 Rocket 4.3 01:44:15 10° NNW 01:50:27 69° W 01:56:35 10° S
NOSS 3-4 (A) 3.9 01:45:30 10° S 01:50:43 34° ESE 01:56:07 10° NE
NOSS 3-4 (C) 4.0 01:45:37 10° S 01:50:49 33° ESE 01:56:13 10° NE
STARLINK-1084 3.7 01:46:46 10° NW 01:50:55 73° NE 01:53:29 22° ESE
Cosmos 2082 Rocket 3.3 01:47:04 10° NW 01:52:24 41° WSW 01:57:41 10° S
STARLINK-29 3.2 01:49:32 10° SW 01:52:44 71° NW 01:55:57 10° NE
Cosmos 2369 Rocket 2.3 01:49:19 10° S 01:54:49 54° ESE 02:00:19 10° NNE
Cosmos 292 Rocket 4.4 01:52:30 18° SSE 01:55:24 35° ESE 01:59:48 10° NE
STARLINK-1098 3.6 01:51:44 10° NW 01:55:53 80° NE 01:58:15 24° SE
SL-8 R/B 3.7 01:51:08 10° NW 01:55:57 77° NNE 01:59:08 21° ESE
ISS -1.0 01:55:24 10° WSW 01:56:01 10° SW 01:56:38 10° SW
MetOp-B 4.2 01:53:24 18° SSE 01:57:26 69° ENE 02:02:45 10° N
STARLINK-1123 3.6 01:56:43 10° NW 02:00:52 87° NE 02:03:03 27° SE
ERS-1 Rocket 4.0 01:59:13 19° ESE 02:01:46 30° ENE 02:06:07 10° N
Cosmos 1378 3.0 02:02:56 19° S 02:05:31 80° E 02:09:14 10° N
Meteor 1-15 Rocket 4.4 01:59:45 10° N 02:05:41 83° W 02:10:27 16° S
STARLINK-1097 3.5 02:01:41 10° NW 02:05:50 85° SW 02:07:49 30° SE
Cosmos 1975 Rocket 3.5 02:05:35 26° SE 02:07:33 42° E 02:11:43 10° NNE
Lacrosse 5 4.1 02:07:03 10° W 02:10:00 16° WSW 02:12:55 10° SSW
H-2A ROCKET BODY 4.1 02:05:07 10° SSW 02:10:34 34° SE 02:30:38 10° E
STARLINK-1099 3.6 02:06:40 10° NW 02:10:48 77° SW 02:12:36 32° SE
Landsat 7 3.9 02:08:12 26° SSE 02:10:49 61° ENE 02:15:31 10° N
STARLINK-1377 4.4 02:12:41 29° ESE 02:12:41 29° ESE 02:15:24 10° ENE
Cosmos 1805 3.3 02:09:32 10° N 02:13:25 63° E 02:14:56 34° SSE
STARLINK-1104 3.7 02:11:40 10° NW 02:15:47 69° SW 02:17:24 35° SSE
STARLINK-1353 4.2 02:16:36 33° ESE 02:16:36 33° ESE 02:19:36 10° ENE
ATLAS 2AS CENTAUR R/B 3.0 02:10:29 10° SSW 02:18:14 64° ESE 02:26:07 10° NE
STARLINK-1375 4.0 02:20:38 36° ESE 02:20:38 36° ESE 02:23:51 10° ENE
Cosmos 1900 4.4 02:15:31 10° NNW 02:20:36 81° WSW 02:23:08 30° SSE
STARLINK-1144 3.8 02:16:39 10° NW 02:20:45 62° SW 02:22:10 37° SSE
SWAS 4.4 02:17:06 10° NNW 02:21:25 74° ENE 02:23:03 37° SE
NOSS 3-2 (A) 4.1 02:15:49 10° NNW 02:23:35 80° ENE 02:28:54 26° SE
SAR-Lupe-2 3.7 02:20:39 10° N 02:24:15 73° WNW 02:26:18 24° SSW
STARLINK-1350 3.8 02:24:35 41° ESE 02:24:35 41° ESE 02:28:02 10° ENE
STARLINK-1103 3.9 02:21:39 10° WNW 02:25:43 56° SW 02:26:57 38° S
Cosmos 1842 3.2 02:25:34 42° SSE 02:26:36 60° E 02:30:26 10° NNE
Cosmos 1092 Rocket 3.9 02:22:30 18° S 02:27:14 82° E 02:33:24 10° N
Cosmos 1733 3.2 02:23:31 10° N 02:27:17 60° E 02:28:04 47° SE
STARLINK-1352 3.7 02:28:37 46° SE 02:28:37 46° SE 02:32:19 10° ENE
STARLINK-1101 4.0 02:26:38 10° WNW 02:30:39 50° SW 02:31:43 39° S
STARLINK-1368 3.5 02:32:41 51° SE 02:32:45 51° SE 02:36:35 10° ENE
COSMOS 2455 3.2 02:30:26 30° SSE 02:32:47 43° ESE 02:38:26 10° NE
STARLINK-1102 4.2 02:31:41 10° WNW 02:35:38 45° SW 02:36:32 38° S
Milstar 3 Cent rocket 4.1 02:28:09 10° SW 02:35:55 43° SSE 02:51:41 10° E
STARLINK-1369 3.5 02:36:43 54° SSE 02:36:59 56° SE 02:40:52 10° ENE
Cosmos 2195 Rocket 4.4 02:33:27 21° S 02:37:50 86° E 02:44:07 10° N
USA 238 DEB 3.8 02:30:45 10° NW 02:38:04 86° WSW 02:42:03 31° SSE
USA 238 3.8 02:30:51 10° NW 02:38:10 87° WSW 02:42:09 31° SSE
Spot 2 Rocket 3.8 02:35:31 26° S 02:38:18 60° WSW 02:43:18 10° NNW
Okean 1 Rocket 4.3 02:34:46 10° NNW 02:38:52 38° W 02:41:36 18° SSW
Cosmos 1953 4.5 02:37:07 10° NE 02:39:03 13° ENE 02:39:03 13° ENE
Cosmos 1428 Rocket 4.5 02:35:56 28° S 02:39:24 69° E 02:45:37 10° NNE
Cosmos 1455 Rocket 3.2 02:35:59 10° N 02:40:15 55° E 02:41:04 47° ESE
STARLINK-1111 4.3 02:36:43 10° WNW 02:40:37 40° SW 02:41:19 37° SSW
STARLINK-1372 3.4 02:40:46 56° S 02:41:14 62° SE 02:45:09 10° NE
Cosmos 1271 Rocket 3.2 02:41:37 42° E 02:41:37 42° E 02:45:14 10° NNE
Meteor 1-22 Rocket 4.2 02:36:44 10° N 02:42:31 86° W 02:45:04 34° S
FALCON 9 DEB 4.3 02:40:49 10° WSW 02:44:06 44° NW 02:47:25 10° NE
SL-4 R/B 4.2 02:39:57 10° W 02:44:11 32° NNW 02:48:33 10° NE
Cosmos 1627 Rocket 4.5 02:40:38 24° S 02:44:43 88° E 02:51:08 10° N
STARLINK-1378 3.3 02:44:47 55° S 02:45:28 68° SE 02:49:24 10° NE
STARLINK-1073 4.4 02:41:43 10° WNW 02:45:33 36° SW 02:46:05 35° SSW
CARTOSAT-1 3.5 02:45:52 52° SSE 02:46:53 79° ENE 02:51:12 10° N
SPOT 5 3.1 02:46:23 41° SSE 02:48:16 74° ENE 02:53:38 10° N
STARLINK-1379 3.3 02:48:53 51° SSW 02:49:46 75° SE 02:53:44 10° NE
IGS 5A 4.3 02:48:39 31° SSW 02:50:10 45° W 02:54:10 10° NNW
SL-27 R/B 2.4 02:47:08 10° NNW 02:50:40 73° WSW 02:50:47 71° SW
STARLINK-1235 4.2 02:47:28 10° NW 02:50:41 36° NE 02:51:02 35° NE
STARLINK-1329 3.3 02:52:04 47° SW 02:53:08 80° SE 02:57:07 10° NE
Cosmos 1707 3.5 02:53:41 38° ENE 02:53:41 38° ENE 02:56:50 10° NNE
Cosmos 2263 4.5 02:48:58 10° SSW 02:54:31 67° WNW 03:00:07 10° NNE
COSMOS 2487 4.5 02:52:09 10° NNE 02:54:15 18° NE 02:54:15 18° NE
ATLAS CENTAUR R/B 1.6 02:52:16 18° SW 02:55:29 73° WNW 02:59:42 10° NNE
Terra 1.9 02:55:01 49° SE 02:56:01 61° ENE 03:00:44 10° N
Okean 2 4.5 02:54:11 22° SW 02:56:26 41° W 03:00:23 10° N
STARLINK-1362 3.4 02:56:04 38° SW 02:57:29 87° SE 03:01:30 10° NE
Cosmos 1758 3.8 02:53:50 10° N 02:57:44 44° ENE 02:57:44 44° ENE
Resurs 01 Rocket 4.2 02:55:42 10° SW 02:58:15 15° W 03:00:50 10° WNW
Meteor 2-13 Rocket 4.4 02:56:30 29° S 02:59:50 84° W 03:06:03 10° N
STARLINK-1373 3.4 03:00:24 38° SW 03:01:51 86° NW 03:05:51 10° NE
Cosmos 1242 Rocket 3.0 03:04:40 52° WSW 03:05:05 56° W 03:08:43 10° N
SPOT 1/Viking Rocket 4.3 03:03:35 30° SSW 03:05:42 46° W 03:10:40 10° NNW
Cosmos 2026 Rocket 4.3 03:02:16 24° SSW 03:06:12 67° W 03:12:33 10° N
Cosmos 1174 3.9 03:06:44 55° N 03:06:44 55° N 03:09:44 10° NNE
STARLINK-1390 3.5 03:04:35 34° WSW 03:06:14 79° NW 03:10:14 10° NE
Cosmos 1943 Rocket 4.1 03:01:42 10° WSW 03:06:23 27° WNW 03:11:07 10° N
Cosmos 1536 Rocket 3.7 03:07:37 55° E 03:07:37 55° E 03:11:47 10° NNE
S3M 4.4 03:02:58 10° N 03:08:56 48° E 03:10:30 40° ESE
STARLINK-1365 3.7 03:07:35 18° WSW 03:10:25 71° NW 03:14:26 10° NE
STARLINK-1212 4.3 03:08:47 10° NW 03:11:05 36° N 03:11:05 36° N
SeaSat 1 4.2 03:08:19 10° ENE 03:10:22 18° E 03:10:22 18° E
STARLINK-1105 4.3 03:09:17 10° NW 03:11:35 36° N 03:11:35 36° N
STARLINK-1247 4.3 03:10:14 10° NW 03:12:31 36° N 03:12:31 36° N
STARLINK-1227 4.4 03:10:46 10° NW 03:13:00 36° N 03:13:00 36° N
STARLINK-1226 4.4 03:11:45 10° NW 03:13:58 36° N 03:13:58 36° N
Cosmos 2084 3.7 03:15:32 56° ENE 03:15:32 56° ENE 03:19:17 10° NE
CENTAUR R/B 3.2 03:07:17 10° NW 03:15:36 87° WSW 03:19:26 39° SSE
STARLINK-1215 4.4 03:12:45 10° NW 03:14:58 36° N 03:14:58 36° N
Cosmos 1833 4.1 03:10:17 10° NNW 03:15:57 79° ENE 03:17:12 55° SE
Cosmos 1486 Rocket 4.2 03:11:48 10° NNW 03:17:00 61° WSW 03:18:10 48° SSW
Cosmos 1544 Rocket 3.4 03:13:17 10° N 03:17:38 77° W 03:17:56 72° SW
STARLINK-1217 4.4 03:14:44 10° NW 03:16:55 36° NNW 03:16:55 36° NNW
Cosmos 1354 Rocket 4.1 03:13:13 10° NNW 03:18:32 66° ENE 03:19:23 56° ESE
STARLINK-1229 4.5 03:15:42 10° NW 03:17:49 35° NNW 03:17:49 35° NNW
STARLINK-1270 4.5 03:16:44 10° NW 03:18:52 36° NNW 03:18:52 36° NNW
Cosmos 1553 Rocket 3.9 03:13:39 10° N 03:19:55 81° E 03:21:34 51° SSE
ATLAS 3B R/B 3.2 03:16:21 10° NNW 03:23:01 52° NE 03:25:46 34° ESE
STARLINK-1338 4.2 03:23:31 22° WSW 03:25:48 52° NW 03:29:39 10° NE
Cosmos 1656 Rocket 4.4 03:22:48 17° SW 03:26:55 51° WNW 03:32:21 10° NNE
STARLINK-1209 4.4 03:23:53 10° NW 03:26:15 41° NW 03:26:15 41° NW
Meteor 1-16 Rocket 4.4 03:28:18 10° N 03:33:34 50° ENE 03:33:59 49° E
NOSS 3-2 (C) 4.3 03:28:28 10° NW 03:36:10 60° WSW 03:39:06 41° S
Cosmos 2266 Rocket 3.8 03:37:44 59° SE 03:38:40 69° E 03:44:40 10° NNE
Cosmos 2369 Rocket 4.4 03:34:52 10° WSW 03:39:10 22° NW 03:43:29 10° N
ERS-1 Rocket 4.3 03:39:13 26° WSW 03:40:28 29° W 03:44:51 10° NW
Cosmos 1655 Rocket 3.9 03:40:04 51° SSW 03:41:45 82° W 03:48:04 10° N
ATLAS 3B CENTAUR R/B 3.8 03:30:16 10° W 03:42:00 35° SSW 03:42:25 35° SSW
BREEZE-M DEB (TANK) 3.3 03:36:39 10° NW 03:44:32 56° SW 03:44:45 55° SW
Cosmos 1025 Rocket 3.8 03:45:12 42° W 03:45:30 43° W 03:49:38 10° N
ALOS 2 4.4 03:45:55 22° ENE 03:45:55 22° ENE 03:49:06 10° NNE
Cosmos 2227 Rocket 4.5 03:42:46 10° NNE 03:45:51 15° NE 03:48:40 11° E
Cosmos 2098 Rocket 4.5 03:47:16 50° SE 03:48:50 60° E 03:56:08 10° NNE
Cosmos 1674 4.1 03:55:48 33° NNE 03:55:48 33° NNE 03:58:04 10° NNE
Cosmos 1470 4.4 03:51:21 10° NNW 03:54:15 27° W 03:54:15 27° W
Cosmos 1726 3.3 03:52:38 10° N 03:55:12 42° NNW 03:55:12 42° NNW
BREEZE-M R/B 4.3 03:45:50 10° SW 03:57:31 84° NW 04:02:37 10° NE
Cosmos 1867 3.9 03:52:17 10° NW 03:57:35 53° WSW 03:57:37 53° WSW
Meteor 2-5 Rocket 4.1 03:59:11 48° E 03:59:11 48° E 04:04:24 10° NNE
Cosmos 1340 Rocket 3.6 03:57:26 10° NNW 04:00:36 50° NNW 04:00:36 50° NNW
ATLAS 5 CENTAUR R/B 3.6 03:56:37 10° WSW 04:02:07 30° WNW 04:04:36 10° N
In-Cosmos 22 4.3 04:04:12 58° WSW 04:04:46 61° W 04:10:00 10° N
Cosmos 883 Rocket 4.3 03:59:18 10° N 04:05:28 82° E 04:06:09 71° SSE
Cosmos 921 Rocket 4.1 04:08:21 37° NE 04:08:21 37° NE 04:11:12 10° NNE
RESURS DK-1 3.3 04:08:27 45° NW 04:08:27 45° NW 04:12:03 10° NNE
Cosmos 2228 3.9 04:05:44 10° N 04:08:54 44° NNE 04:08:54 44° NNE
CZ-4C R/B 3.6 04:15:02 23° ENE 04:15:02 23° ENE 04:17:47 10° NE
Cosmos 1953 3.8 04:12:01 10° NNW 04:14:45 32° WNW 04:14:45 32° WNW
Cosmos 1777 Rocket 4.0 04:12:12 10° NNW 04:17:17 78° NE 04:17:17 78° NE
COSMOS 2455 4.4 04:13:34 10° WSW 04:18:49 31° NW 04:24:08 10° N
Thor Agena Rocket 4.1 04:17:22 10° N 04:22:27 49° WNW 04:23:11 46° W
Nimbus 7 Rocket 4.3 04:18:15 10° NNE 04:24:20 83° ESE 04:24:46 77° SSE
Cosmos 1626 4.1 04:26:25 25° NNE 04:26:25 25° NNE 04:28:08 10° NNE
Cosmos 1892 Rocket 4.4 04:25:50 47° NNE 04:25:50 47° NNE 04:29:01 10° NNE
Cosmos 1726 Rocket 4.3 04:22:56 10° N 04:26:11 49° NNE 04:26:11 49° NNE
Meteor 2-14 Rocket 4.5 04:27:23 63° ESE 04:27:35 63° E 04:33:39 10° NNE
Cosmos 1980 Rocket 4.4 04:30:49 12° E 04:30:49 12° E 04:31:56 10° ENE
Terra 4.2 04:33:54 13° W 04:34:08 13° W 04:36:12 10° WNW
SJ 16-02 3.2 04:32:31 10° NNE 04:35:53 22° ENE 04:35:53 22° ENE
Timation 2 Rocket 3.7 04:33:50 10° NNW 04:40:03 78° WSW 04:40:11 78° SW
Meteor 1-24 Rocket 3.6 04:43:16 81° NNE 04:43:16 81° NNE 04:48:30 10° N
Cosmos 1809 Rocket 4.4 04:46:19 68° WSW 04:46:51 73° W 04:53:03 10° N
SeaSat 1 3.1 04:45:01 10° NNE 04:49:43 46° WNW 04:50:08 45° WNW
Cosmos 1656 3.7 04:52:29 73° ENE 04:52:29 73° ENE 04:57:41 10° NNE
Cosmos 2297 Rocket 2.6 04:47:26 10° NNW 04:52:58 54° ENE 04:53:23 53° E
USA 215 4.4 04:49:08 10° E 04:55:07 39° NNE 05:01:04 10° NW
Cosmos 2219 3.2 04:50:01 10° NNW 04:55:39 70° ENE 04:55:41 70° ENE
Cosmos 2315 Rocket 4.4 04:51:41 10° NNW 04:57:35 47° W 04:58:03 46° WSW
Cosmos 1898 Rocket 4.2 05:07:06 10° N 05:12:14 47° ENE 05:12:27 46° ENE
ATLAS 3B R/B 3.7 05:07:32 10° NW 05:13:00 31° WSW 05:13:00 31° WSW
Nadezhda 1 Rocket 4.0 05:07:55 10° N 05:14:09 66° E 05:14:45 63° ESE
Cosmos 1697 Rocket 2.9 05:15:48 62° E 05:15:48 62° E 05:20:58 10° NNE
Cosmos 2058 Rocket 4.4 05:16:55 10° NNW 05:19:55 34° NW 05:19:55 34° NW
ALOS 2 4.3 05:23:18 26° WNW 05:23:18 26° WNW 05:25:49 10° NNW
Meteor 2-16 Rocket 4.4 05:22:16 66° WSW 05:22:38 67° W 05:28:44 10° N
Cosmos 990 Rocket 4.2 05:19:14 10° NNW 05:24:18 63° ENE 05:24:18 63° ENE
ATLAS CENTAUR R/B 4.0 05:25:20 10° NNW 05:26:06 18° NNW 05:26:06 18° NNW
EO 1 Delta rocket 4.5 05:24:57 10° N 05:29:25 49° WNW 05:29:25 49° WNW
Cosmos 2227 Rocket 2.1 05:24:57 10° NNW 05:30:28 83° NW 05:30:28 83° NW
Resurs 1-4 Rocket 4.2 05:28:25 10° NE 05:31:29 15° E 05:31:57 15° E
Helios 1B rocket 3.5 05:31:42 10° NNE 05:34:34 44° NNE 05:34:34 44° NNE
Cosmos 841 Rocket 3.8 05:37:57 56° ENE 05:37:57 56° ENE 05:42:34 10° NNE
Cosmos 1812 Rocket 4.3 05:35:07 10° N 05:38:32 52° N 05:38:32 52° N
Cosmos 1570 Rocket 4.1 05:40:23 68° ENE 05:40:23 68° ENE 05:45:15 10° NNE
SL-16 R/B 4.2 05:42:15 15° ESE 05:42:41 15° E 05:45:47 10° ENE
SL-08 ROCKET BODY 4.4 05:44:28 60° W 05:44:41 60° W 05:50:28 10° N
Cosmos 1763 Rocket 3.7 05:45:56 58° NW 05:45:56 58° NW 05:50:41 10° N
Meteor 1-21 Rocket 4.1 05:47:49 84° WSW 05:47:55 85° W 05:53:42 10° N
PSLV R/B 4.3 05:44:48 10° N 05:48:15 51° NNW 05:48:15 51° NNW
Cosmos 1745 Rocket 4.2 05:50:15 52° W 05:50:45 53° W 05:56:45 10° N
Alouette 2 Rocket 4.5 05:47:30 10° N 05:51:03 42° NE 05:51:03 42° NE
FALCON 9 R/B 2.9 05:53:12 57° SSE 05:53:12 57° SSE 06:07:08 10° ESE
Lacrosse 4 Rocket 2.5 05:49:07 10° NNW 05:52:03 43° NNW 05:52:03 43° NNW
Cosmos 2208 Rocket 3.9 05:58:06 84° NE 05:58:06 84° NE 06:03:17 10° NNE
BREEZE-M DEB (TANK) 4.3 05:54:57 10° WNW 06:02:44 28° SE 06:08:18 10° SE
CZ-2D R/B 3.4 05:55:36 10° NE 05:59:59 27° E 06:00:29 27° ESE
Cosmos 1703 4.4 06:01:42 42° NNE 06:01:42 42° NNE 06:04:23 10° N
CZ-4C R/B 3.2 06:00:11 31° WNW 06:01:24 35° NW 06:06:42 10° NNE
Cosmos 1455 3.7 05:59:03 10° N 06:01:16 34° N 06:01:16 34° N
USA 81 4.0 06:02:59 80° WNW 06:02:59 80° WNW 06:08:11 10° N
Meteor 2-10 Rocket 3.4 05:58:11 10° NNW 06:02:55 74° NW 06:02:55 74° NW
Gblst 52 Del rocket 4.4 06:07:47 63° SSE 06:08:05 64° SE 06:14:53 10° NE
BREEZE M DEB (TANK) 4.5 06:06:26 49° SSW 06:09:07 74° SE 06:42:40 10° ENE
Cosmos 1980 Rocket 2.0 06:12:34 75° WSW 06:12:56 79° WNW 06:18:37 10° NNE
SJ 16-02 3.1 06:10:43 10° NW 06:12:52 23° WNW 06:12:52 23° WNW
Meteor 1-11 4.2 06:18:44 62° SE 06:19:23 67° E 06:24:56 10° NNE
Cosmos 540 Rocket 3.7 06:23:15 54° WNW 06:23:23 55° WNW 06:28:26 10° N
MOZ.5/SAFIR/RUBIN 5/SL-8 4.2 06:24:02 50° E 06:24:35 54° ENE 06:29:07 10° N
Cosmos 2181 Rocket 4.0 06:21:57 10° N 06:28:25 85° W 06:29:53 57° S
Cosmos 2263 Rocket 3.2 06:28:51 10° N 06:34:08 41° ENE 06:38:19 15° SE
Cosmos 2084 Rocket 3.6 06:29:45 10° NNW 06:33:57 76° N 06:33:57 76° N
Cosmos 2297 Rocket 3.9 06:32:37 10° NW 06:35:10 18° W 06:35:10 18° W
Cosmos 1375 Rocket 4.5 06:30:33 10° NNW 06:37:11 88° ENE 06:40:03 37° SSE
USA 215 3.1 06:35:30 42° SSE 06:37:50 68° SW 06:44:22 10° NW
Cosmos 1400 Rocket 3.1 06:33:57 10° N 06:37:40 69° NNE 06:37:40 69° NNE
STARLINK-1304 4.1 06:42:10 55° E 06:42:10 55° E 06:45:33 10° NE
SL-16 R/B 2.7 06:39:30 35° SE 06:42:13 70° ENE 06:48:23 10° N
ADEOS II 3.7 06:37:54 10° NE 06:42:14 26° E 06:44:20 20° SE
STARLINK-1278 3.8 06:42:53 69° ENE 06:42:53 69° ENE 06:46:40 10° NE
CZ-4B R/B 4.1 06:38:55 10° NNE 06:44:03 51° E 06:45:16 43° SE
STARLINK-1280 3.8 06:44:39 72° ENE 06:44:39 72° ENE 06:48:31 10° NE
Cosmos 1953 Rocket 4.1 06:44:45 48° WNW 06:44:45 48° WNW 06:48:41 10° N
NPP 3.8 06:39:52 10° NNE 06:45:14 64° ESE 06:46:24 51° SSE
Cosmos 1241 Rocket 4.3 06:47:22 55° SSW 06:48:51 82° ESE 06:55:06 10° NNE
Cosmos-2242 4.1 06:46:19 10° NNW 06:49:17 32° WNW 06:49:17 32° WNW
Cosmos 2322 Rocket 2.7 06:49:46 41° SSE 06:51:09 50° ESE 06:56:34 10° NNE
GP-B 3.0 06:46:44 10° N 06:51:08 73° W 06:51:08 73° W
Cosmos 2221 3.5 06:48:57 10° N 06:53:07 43° E 06:54:27 33° ESE
Cosmos 1842 Rocket 4.0 06:52:09 10° N 06:56:35 59° E 06:57:33 47° SE
STARLINK-1286 3.6 06:56:53 82° N 06:56:53 82° N 07:00:58 10° NE
STARLINK-48 4.4 06:57:13 39° NW 06:57:30 40° NW 07:01:11 10° NE
ARIANE 5 R/B 4.5 06:54:46 10° NE 06:58:28 20° E 07:01:20 13° SE
STARLINK-1281 3.5 07:01:19 80° NW 07:01:20 80° NW 07:05:30 10° NE
Cosmos 372 Rocket 4.0 06:56:30 10° NNW 07:01:31 55° WSW 07:01:47 54° WSW
Iridium 2 3.9 07:00:44 10° N 07:04:29 62° E 07:04:41 61° ESE
CZ-4C R/B 3.6 07:05:46 62° W 07:05:46 62° W 07:10:10 10° NNW
STARLINK-1310 3.6 07:06:04 70° WNW 07:06:18 73° NW 07:10:27 10° NE
IKONOS-2 4.3 07:06:05 73° SSW 07:06:25 81° WSW 07:10:44 10° NNW
Cosmos 2150 Rocket 3.9 07:03:08 10° NNW 07:08:15 66° WSW 07:09:08 55° SSW
Nadezhda 3 Rocket 4.3 07:02:40 10° N 07:09:00 67° E 07:13:06 23° SSE
AQUA 3.7 07:04:51 10° NNE 07:09:38 88° ESE 07:10:40 56° S
UNK 3.6 07:09:56 61° SW 07:10:27 67° WSW 07:15:01 10° NNW
STARLINK-1319 3.7 07:10:51 61° WNW 07:11:17 66° NW 07:15:24 10° NE
Resurs 1-4 Rocket 2.2 07:06:27 10° N 07:11:41 61° WNW 07:13:02 46° SW
STARLINK-69 4.5 07:13:01 32° ESE 07:13:01 32° ESE 07:15:47 10° ENE
Cosmos 1315 Rocket 2.9 07:08:46 10° N 07:12:42 68° E 07:13:25 54° SE
Cosmos 2058 3.3 07:12:34 47° SE 07:13:27 59° E 07:17:36 10° NNE
Meteor 1-27 4.1 07:08:56 10° NNW 07:14:28 68° W 07:16:09 44° SSW
STARLINK-45 4.3 07:16:11 36° ESE 07:16:11 36° ESE 07:19:09 10° ENE
STARLINK-1277 3.9 07:15:37 52° W 07:16:16 60° NW 07:20:22 10° NE
STARLINK-70 4.2 07:17:28 36° ESE 07:17:28 36° ESE 07:20:26 10° ENE
NOSS 2-1 (C) 3.7 07:18:54 42° NW 07:18:54 42° NW 07:22:12 10° NNE
STARLINK-76 4.2 07:19:14 36° ESE 07:19:14 36° ESE 07:22:17 10° ENE
Cosmos 2227 4.1 07:13:47 10° NNW 07:19:31 71° WSW 07:22:09 33° S
STARLINK-23 4.2 07:20:43 37° ESE 07:20:43 37° ESE 07:23:49 10° ENE
STARLINK-1276 4.0 07:20:25 45° W 07:21:16 55° NW 07:25:20 10° NE
STARLINK-32 4.1 07:22:14 39° ESE 07:22:14 39° ESE 07:25:23 10° ENE
GEOS 3 Rocket 4.0 07:18:07 10° SE 07:23:13 66° NE 07:28:27 10° NNW
STARLINK-40 4.0 07:23:51 40° SE 07:23:51 40° SE 07:27:07 10° ENE
NOSS 2-1 (D) 3.8 07:23:38 37° WNW 07:23:46 37° NW 07:27:02 10° NNE
Cosmos 1125 Rocket 3.4 07:18:59 10° NNW 07:24:12 78° WSW 07:26:34 33° S
STARLINK-1306 4.3 07:23:15 39° W 07:24:20 49° NW 07:28:25 10° NE
STARLINK-44 3.9 07:25:20 42° SE 07:25:20 42° SE 07:28:39 10° ENE
USA 229 DEB 3.9 07:17:56 10° NNW 07:25:20 84° ENE 07:33:02 10° SE
USA 229 3.9 07:18:02 10° NNW 07:25:26 83° ENE 07:33:07 10° SE
Cosmos 1295 Rocket 4.5 07:22:41 32° S 07:25:51 86° E 07:32:11 10° N
SL-16 R/B 2.2 07:24:07 40° SW 07:26:07 68° WNW 07:31:47 10° NNE
STARLINK-1305 4.2 07:25:10 39° W 07:26:14 50° NW 07:30:16 10° NE
NOSS 3-1 (C) 4.1 07:18:56 10° NW 07:26:46 88° WSW 07:35:36 10° SSE
STARLINK-37 3.6 07:27:09 49° SE 07:27:09 49° SE 07:30:38 10° ENE
STARLINK-36 3.7 07:28:21 45° SE 07:28:22 45° SE 07:31:48 10° ENE
STARLINK-1262 4.3 07:29:59 34° W 07:31:15 46° NW 07:35:16 10° NE
STARLINK-63 3.5 07:31:46 53° SSE 07:31:56 54° SE 07:35:26 10° ENE
IRS-P3 4.3 07:27:42 10° NNE 07:33:01 70° ESE 07:35:47 29° S
STARLINK-35 3.5 07:33:14 51° SSE 07:33:27 52° SE 07:36:57 10° ENE
NOSS 3-1 (A) 4.4 07:26:43 10° NNW 07:34:28 73° NE 07:43:15 10° SE
STARLINK-51 3.4 07:34:49 53° SSE 07:35:05 55° SE 07:38:36 10° ENE
STARLINK-1300 4.5 07:34:47 30° W 07:36:16 42° NW 07:40:13 10° NE
STARLINK-30 3.4 07:36:23 54° SSE 07:36:43 57° SE 07:40:14 10° ENE
STARLINK-72 3.3 07:37:55 55° SSE 07:38:19 60° SE 07:41:51 10° NE
STARLINK-1026 4.2 07:37:39 37° SSE 07:38:33 43° SE 07:42:29 10° ENE
CZ-2D R/B 3.0 07:35:24 10° N 07:40:03 34° WNW 07:41:49 27° WSW
STARLINK-71 3.6 07:39:13 48° SSW 07:40:05 64° SE 07:44:05 10° NE
STARLINK-59 3.2 07:41:07 58° S 07:41:38 69° SE 07:45:12 10° NE
Cosmos 2341 Rocket 4.1 07:38:34 24° S 07:42:39 83° E 07:49:01 10° N
STARLINK-56 3.2 07:42:34 55° S 07:43:07 67° SE 07:46:41 10° NE
STARLINK-1013 4.1 07:42:27 38° S 07:43:31 48° SE 07:47:31 10° ENE
STARLINK-50 3.4 07:43:33 50° SSW 07:44:19 66° SE 07:48:04 10° NE
BREEZE-M DEB (TANK) 4.1 07:41:43 25° W 07:44:31 67° NNW 08:00:28 10° ENE
IRIDIUM 104 4.3 07:42:20 32° SSW 07:44:44 70° W 07:49:57 10° N
STARLINK-73 3.2 07:44:09 55° SSW 07:44:47 70° SE 07:48:21 10° NE
STARLINK-38 3.2 07:45:42 54° SSW 07:46:23 74° SE 07:49:58 10° NE
STARLINK-68 3.2 07:45:41 53° SW 07:46:26 80° SE 07:50:05 10° NE
SL-4 R/B 2.7 07:41:55 10° NW 07:46:42 67° NE 07:51:15 10° ESE
STARLINK-65 3.2 07:47:16 53° SSW 07:48:01 76° SE 07:51:36 10° NE
STARLINK-1009 3.9 07:47:13 37° S 07:48:28 54° SE 07:52:30 10° ENE
STARLINK-60 3.4 07:45:28 10° NW 07:48:38 60° NE 07:51:47 10° ESE
Cosmos 2360 Rocket 2.2 07:46:14 28° SSW 07:49:16 80° ESE 07:54:56 10° NNE
STARLINK-53 3.1 07:48:54 51° SW 07:49:43 84° SE 07:53:18 10° NE
SL-08 R/B 3.5 07:46:20 11° SSE 07:50:42 70° ENE 07:55:18 10° N
Cosmos 773 Rocket 4.2 07:49:35 25° S 07:52:40 71° ESE 07:57:56 10° NNE
STARLINK-1015 3.8 07:52:00 36° SSW 07:53:26 60° SE 07:57:31 10° NE
IRIDIUM 114 4.5 07:51:28 30° SSW 07:53:53 57° W 07:59:02 10° N
Cosmos 1766 Rocket 4.5 07:52:58 14° SSE 07:56:24 44° E 08:00:31 10° NNE
Cosmos 1076 Rocket 4.0 07:55:10 33° SW 07:56:37 45° W 08:00:50 10° N
H-2A R/B 3.6 07:52:36 10° SE 07:56:40 37° ENE 08:00:49 10° N
Okean 3 Rocket 4.2 07:53:20 17° SSE 07:56:41 55° E 08:01:08 10° NNE
Cosmos 1892 3.4 07:56:58 33° WSW 07:57:47 37° W 08:01:20 10° N
Cosmos 1980 Rocket 4.4 07:55:40 10° WNW 07:57:53 12° NW 08:00:06 10° NNW
STARLINK-1016 3.7 07:56:46 35° SSW 07:58:23 67° SE 08:02:29 10° NE
ERS-2 3.3 07:55:29 10° SE 07:58:57 44° ENE 08:02:27 10° N
STARLINK-1444 3.2 07:57:03 10° NW 07:59:15 46° NE 08:01:35 10° ESE
STARLINK-1452 3.1 07:57:41 10° NW 07:59:53 47° NE 08:02:13 10° ESE
Cosmos 2333 Rocket 3.5 07:55:20 11° SSE 08:00:15 35° ESE 08:05:21 10° NE
Cosmos 2151 3.0 07:58:02 23° S 08:00:36 78° E 08:04:54 10° N
STARLINK-1450 3.0 07:58:42 10° NW 08:00:52 48° NE 08:03:08 10° ESE
STARLINK-1392 3.0 07:58:52 10° NW 08:01:02 48° NE 08:03:19 10° ESE
STARLINK-1415 3.0 07:58:53 10° NW 08:01:02 48° NE 08:03:20 10° ESE
STARLINK-1399 3.0 07:58:53 10° NW 08:01:03 48° NE 08:03:20 10° ESE
STARLINK-1394 3.0 07:58:54 10° NW 08:01:04 48° NE 08:03:21 10° ESE
STARLINK-1395 3.0 07:58:54 10° NW 08:01:04 48° NE 08:03:22 10° ESE
STARLINK-1401 3.0 07:58:55 10° NW 08:01:04 48° NE 08:03:22 10° ESE
STARLINK-1396 3.0 07:58:55 10° NW 08:01:04 48° NE 08:03:22 10° ESE
STARLINK-1393 3.0 07:58:55 10° NW 08:01:05 48° NE 08:03:22 10° ESE
STARLINK-1397 3.0 07:58:55 10° NW 08:01:05 48° NE 08:03:23 10° ESE
STARLINK-1453 3.0 07:58:56 10° NW 08:01:05 48° NE 08:03:23 10° ESE
STARLINK-1404 3.0 07:58:56 10° NW 08:01:06 48° NE 08:03:24 10° ESE
STARLINK-1402 3.0 07:58:57 10° NW 08:01:08 49° NE 08:03:25 10° ESE
STARLINK-1417 3.0 07:58:57 10° NW 08:01:08 49° NE 08:03:25 10° ESE
STARLINK-1413 3.0 07:58:58 10° NW 08:01:09 49° NE 08:03:26 10° ESE
STARLINK-1414 3.0 07:58:57 10° NW 08:01:09 49° NE 08:03:29 10° ESE
STARLINK-1406 3.0 07:58:59 10° NW 08:01:09 49° NE 08:03:27 10° ESE
STARLINK-1416 3.0 07:58:58 10° NW 08:01:11 49° NE 08:03:30 10° ESE
STARLINK-1440 3.0 07:59:01 10° NW 08:01:11 49° NE 08:03:29 10° ESE
STARLINK-1408 3.0 07:58:59 10° NW 08:01:12 49° NE 08:03:31 10° ESE
STARLINK-1445 3.0 07:59:01 10° NW 08:01:12 49° NE 08:03:30 10° ESE
STARLINK-1436 (VISORSAT) 3.0 07:59:00 10° NW 08:01:12 49° NE 08:03:32 10° ESE
STARLINK-1443 3.0 07:59:02 10° NW 08:01:12 49° NE 08:03:30 10° ESE
STARLINK-1454 3.0 07:59:03 10° NW 08:01:13 49° NE 08:03:31 10° ESE
STARLINK-1457 3.0 07:59:03 10° NW 08:01:14 49° NE 08:03:31 10° ESE
STARLINK-1456 3.0 07:59:04 10° NW 08:01:14 49° NE 08:03:32 10° ESE
STARLINK-1451 3.0 07:59:04 10° NW 08:01:14 49° NE 08:03:32 10° ESE
STARLINK-1419 3.0 07:59:02 10° NW 08:01:14 49° NE 08:03:35 10° ESE
STARLINK-1398 3.0 07:59:02 10° NW 08:01:15 49° NE 08:03:35 10° ESE
STARLINK-1442 3.0 07:59:06 10° NW 08:01:16 49° NE 08:03:34 10° ESE
STARLINK-1405 3.0 07:59:09 10° NW 08:01:19 49° NE 08:03:36 10° ESE
STARLINK-1410 3.0 07:59:09 10° NW 08:01:19 49° NE 08:03:37 10° ESE
STARLINK-1400 3.0 07:59:10 10° NW 08:01:19 49° NE 08:03:37 10° ESE
STARLINK-1421 3.0 07:59:09 10° NW 08:01:19 49° NE 08:03:37 10° ESE
STARLINK-1422 3.0 07:59:07 10° NW 08:01:19 49° NE 08:03:39 10° ESE
STARLINK-1420 3.0 07:59:07 10° NW 08:01:20 49° NE 08:03:39 10° ESE
STARLINK-1407 3.0 07:59:10 10° NW 08:01:20 49° NE 08:03:38 10° ESE
STARLINK-1439 3.0 07:59:11 10° NW 08:01:20 49° NE 08:03:38 10° ESE
STARLINK-1409 3.0 07:59:11 10° NW 08:01:21 49° NE 08:03:39 10° ESE
STARLINK-1460 3.0 07:59:09 10° NW 08:01:21 49° NE 08:03:41 10° ESE
STARLINK-1351 3.0 07:59:12 10° NW 08:01:22 49° NE 08:03:40 10° ESE
STARLINK-1370 3.0 07:59:12 10° NW 08:01:22 49° NE 08:03:40 10° ESE
STARLINK-1418 3.0 07:59:13 10° NW 08:01:23 49° NE 08:03:40 10° ESE
STARLINK-1434 3.0 07:59:13 10° NW 08:01:23 49° NE 08:03:41 10° ESE
STARLINK-1403 3.0 07:59:14 10° NW 08:01:24 49° NE 08:03:41 10° ESE
STARLINK-1458 3.0 07:59:12 10° NW 08:01:24 49° NE 08:03:44 10° ESE
STARLINK-1433 3.0 07:59:15 10° NW 08:01:25 49° NE 08:03:43 10° ESE
STARLINK-1411 3.0 07:59:16 10° NW 08:01:26 49° NE 08:03:44 10° ESE
STARLINK-1438 3.0 07:59:17 10° NW 08:01:27 49° NE 08:03:45 10° ESE
STARLINK-1423 3.0 07:59:15 10° NW 08:01:28 49° NE 08:03:48 10° ESE
STARLINK-1446 3.0 07:59:15 10° NW 08:01:28 50° NE 08:03:48 10° ESE
STARLINK-1437 3.0 07:59:17 10° NW 08:01:29 50° NE 08:03:49 10° ESE
STARLINK-1447 3.0 07:59:19 10° NW 08:01:31 50° NE 08:03:52 10° ESE
STARLINK-1455 3.0 07:59:19 10° NW 08:01:32 50° NE 08:03:53 10° ESE
STARLINK-1441 3.0 07:59:20 10° NW 08:01:33 50° NE 08:03:53 10° ESE
STARLINK-1448 3.0 07:59:23 10° NW 08:01:36 50° NE 08:03:57 10° ESE
STARLINK-1449 3.0 07:59:24 10° NW 08:01:37 50° NE 08:03:58 10° ESE
CZ-2C R/B 4.3 07:58:15 10° NNE 08:01:40 31° E 08:05:07 10° SSE
STARLINK-1412 3.0 07:59:32 10° NW 08:01:45 50° NE 08:04:06 10° ESE
Cosmos 1869 4.2 07:58:34 10° NNW 08:01:54 28° W 08:02:22 27° WSW
STARLINK-1008 3.6 08:01:34 32° SW 08:03:22 74° SE 08:07:30 10° NE
STARLINK-24 3.5 08:01:58 32° WSW 08:03:43 77° NW 08:07:45 10° NE
SL-8 Rocket 4.0 08:00:18 17° S 08:05:19 88° WNW 08:11:36 10° N
Cosmos 2322 4.1 08:02:02 17° S 08:06:23 59° ESE 08:12:01 10° NNE
Cosmos 2219 Rocket 3.4 08:02:27 10° S 08:07:33 37° ESE 08:12:38 10° NE
Cosmos 2218 Rocket 4.1 08:02:23 13° S 08:08:03 81° E 08:14:29 10° N
STARLINK-1014 3.5 08:06:23 30° SW 08:08:20 82° SE 08:12:28 10° NE
Lacrosse 5 rocket 3.2 08:09:53 12° S 08:12:34 21° ESE 08:15:36 10° ENE
STARLINK-1025 3.6 08:11:08 27° SW 08:13:19 89° ESE 08:17:28 10° NE
Cosmos 2333 4.4 08:11:15 16° S 08:15:43 67° ESE 08:21:19 10° NNE
STARLINK-25 3.5 08:14:07 26° WSW 08:15:46 55° NW 08:19:09 10° NE
Cosmos 2263 Rocket 3.2 08:13:18 10° NW 08:17:46 25° WSW 08:19:55 20° SW
SL-19 R/B 4.4 08:14:06 10° N 08:18:15 61° WNW 08:20:23 23° SW
STARLINK-1017 3.6 08:15:54 25° SW 08:18:16 83° NW 08:22:27 10° NE
ATLAS 5 CENTAUR R/B 3.8 08:17:35 10° SSE 08:20:07 16° ESE 08:22:46 10° ENE
STARLINK-29 3.7 08:17:47 10° NW 08:20:55 55° NE 08:24:01 10° ESE
ADEOS II 2.9 08:17:11 10° N 08:21:58 37° WNW 08:25:17 18° SW
STARLINK-1023 3.6 08:20:41 22° WSW 08:23:15 75° NW 08:27:24 10° NE
SL-16 R/B 4.0 08:24:35 15° WSW 08:26:21 16° W 08:30:06 10° NW
IDEFIX/ARIANE 42P 2.7 08:21:49 10° NNE 08:27:07 78° ESE 08:32:20 10° S
Shenzhou-11 Module 3.3 08:25:37 10° WNW 08:27:50 30° N 08:30:04 10° ENE
STARLINK-1007 3.7 08:25:30 20° WSW 08:28:16 68° NW 08:32:25 10° NE
STARLINK-81 3.9 08:26:24 18° WSW 08:28:45 46° NW 08:32:16 10° NE
Cosmos 2221 4.4 08:27:56 10° NW 08:30:15 14° W 08:31:16 13° W
Cosmos 1844 4.3 08:24:33 10° NNW 08:30:20 64° ENE 08:36:03 10° SSE
STARLINK-54 4.2 08:28:09 17° W 08:30:38 40° NW 08:34:05 10° NE
Meteor 2-3 Rocket 4.3 08:25:47 10° S 08:31:15 58° E 08:36:44 10° NNE
STARLINK-77 4.1 08:29:34 17° WSW 08:32:04 43° NW 08:35:33 10° NE
STARLINK-1048 3.9 08:30:16 18° WSW 08:33:14 62° NW 08:37:22 10° NE
Cosmos 1408 4.0 08:31:51 17° WSW 08:33:25 22° WNW 08:36:23 10° NNW
Cosmos 1825 3.0 08:32:28 19° SW 08:34:36 34° WNW 08:38:04 10° NNW
Cosmos 2322 Rocket 3.7 08:31:35 12° WSW 08:35:28 23° NW 08:39:53 10° N
STARLINK-79 4.2 08:34:16 15° W 08:36:59 39° NW 08:40:24 10° NE
CZ-4B R/B 4.2 08:35:06 10° ESE 08:37:23 19° ENE 08:39:42 10° NNE
ARIANE 5 R/B 3.0 08:33:01 10° N 08:37:43 41° WNW 08:41:39 14° SW
STARLINK-1049 4.0 08:35:03 16° WSW 08:38:14 57° NW 08:42:19 10° NE
STARLINK-78 4.3 08:35:49 14° W 08:38:35 37° NW 08:41:59 10° NE
STARLINK-57 4.4 08:37:28 13° W 08:40:21 35° NNW 08:43:42 10° NE
STARLINK-49 4.4 08:38:57 13° W 08:41:51 35° NW 08:45:13 10° NE
STARLINK-1051 4.1 08:39:48 14° WSW 08:43:11 52° NW 08:47:16 10° NE
STARLINK-27 4.4 08:40:31 12° W 08:43:29 34° NNW 08:46:49 10° NE
STARLINK-74 4.5 08:42:04 12° W 08:45:07 33° NNW 08:48:26 10° NNE
Cosmos 1328 Rocket 3.5 08:44:44 10° N 08:49:08 81° W 08:53:27 10° S
Cosmos 1680 Rocket 4.4 08:45:23 10° S 08:50:25 49° ESE 08:55:30 10° NNE
STARLINK-1028 4.4 08:49:23 11° WSW 08:53:12 43° NW 08:57:10 10° NE
PSLV R/B 3.9 08:51:38 10° NNE 08:55:48 64° ESE 08:59:56 10° S
STARLINK-52 2.8 08:53:08 10° NW 08:56:19 69° SW 08:59:30 10° SE
Cosmos 923 Rocket 4.2 08:51:16 10° S 08:56:26 75° ESE 09:01:39 10° NNE
Cosmos 2366 rocket 4.5 08:50:42 10° SSW 08:56:35 44° WNW 09:02:35 10° N
Cosmos 1340 3.0 08:53:21 10° S 08:57:04 67° E 09:00:49 10° NNE
Cosmos 1933 3.3 08:55:04 10° NNW 08:59:05 66° W 09:03:03 10° S
MSX 3.9 08:53:27 10° N 08:59:13 80° WNW 09:04:56 10° SSW
STARLINK-1068 4.4 08:56:31 10° SSW 09:00:28 46° SE 09:04:27 10° ENE
CZ-4C R/B 3.6 08:58:38 10° SSW 09:02:02 38° W 09:05:28 10° NNW
Landsat 5 3.8 08:58:13 10° S 09:02:37 52° W 09:07:00 10° NNW
Cosmos 2237 Rocket 3.6 08:57:58 10° S 09:03:07 38° ESE 09:08:19 10° NE
BREEZE-M TANK 3.3 09:00:41 10° SSW 09:03:46 32° SE 09:06:44 10° ENE
STARLINK-1027 4.2 09:01:27 10° SSW 09:05:27 51° SE 09:09:29 10° ENE
STARLINK-1060 4.0 09:06:20 10° SSW 09:10:23 57° SE 09:14:28 10° ENE
SL-16 R/B 4.4 09:10:05 10° WNW 09:11:19 11° NW 09:12:31 10° NNW
Cosmos 1500 Rocket 3.6 09:08:22 10° S 09:12:49 90° W 09:17:19 10° N
Cosmos 1844 Rocket 3.0 09:07:36 10° NW 09:12:53 44° WSW 09:18:07 10° S
COSMOS 2428 2.8 09:07:26 10° SSW 09:13:03 67° WNW 09:18:44 10° NNE
STARLINK-1030 3.9 09:11:16 10° SW 09:15:22 64° SE 09:19:28 10° NE
Cosmos 1821 Rocket 4.1 09:10:06 10° S 09:16:28 77° W 09:22:46 10° N
Cosmos 1818 3.6 09:11:12 10° SSW 09:16:36 84° WNW 09:22:05 10° NNE
